When you browse on this site, cookies collect data to enhance your experience and personalize the content and advertising you see.
Visit our Privacy Policy to learn more. By continuing to use the site, you agree to this use of cookies and data.
  • In Romania
  • List of Countries
  • For 7 days
  • Water Temperature
  • Weather Map
  • Weather Widgets
  • user-avatar
    Login

    Hourly Weather Cam Ranh

    Today, 24 August, Saturday

    Time Temperature Precipitation Wind Pressure Humidity
    00:00 +29°C° 0 mm 2 mps 751 mmHg 83%
    01:00 +28°C° 0 mm 2 mps 751 mmHg 82%
    02:00 +28°C° 0 mm 2 mps 751 mmHg 81%
    03:00 +28°C° 0 mm 2 mps 750 mmHg 80%
    04:00 +28°C° 0 mm 2 mps 750 mmHg 79%
    05:00 +28°C° 0.1 mm 1 mps 750 mmHg 78%
    06:00 +29°C° 0.1 mm 1 mps 751 mmHg 76%
    07:00 +28°C° 0 mm 0 mps 751 mmHg 71%
    08:00 +31°C° 0 mm 1 mps 751 mmHg 67%
    09:00 +32°C° 0 mm 1 mps 751 mmHg 64%
    10:00 +33°C° 0 mm 1 mps 751 mmHg 61%
    11:00 +34°C° 0 mm 2 mps 750 mmHg 62%
    12:00 +34°C° 0 mm 3 mps 750 mmHg 63%
    13:00 +34°C° 0 mm 3 mps 749 mmHg 64%
    14:00 +34°C° 0.4 mm 3 mps 749 mmHg 67%
    15:00 +34°C° 0.4 mm 4 mps 749 mmHg 70%
    16:00 +33°C° 0.4 mm 4 mps 748 mmHg 73%
    17:00 +33°C° 0.7 mm 3 mps 749 mmHg 77%
    18:00 +31°C° 0.7 mm 3 mps 749 mmHg 81%
    19:00 +30°C° 0.7 mm 3 mps 749 mmHg 85%
    20:00 +30°C° 0.2 mm 3 mps 750 mmHg 85%
    21:00 +29°C° 0.2 mm 2 mps 751 mmHg 85%
    22:00 +29°C° 0.2 mm 2 mps 751 mmHg 84%
    23:00 +29°C° 0 mm 2 mps 751 mmHg 84%

    Tomorrow, 25 August, Sunday

    Time Temperature Precipitation Wind Pressure Humidity
    00:00 +29°C° 0 mm 2 mps 750 mmHg 84%
    01:00 +28°C° 0 mm 2 mps 750 mmHg 83%
    02:00 +28°C° 0 mm 2 mps 750 mmHg 82%
    03:00 +28°C° 0 mm 2 mps 750 mmHg 81%
    04:00 +28°C° 0 mm 2 mps 750 mmHg 80%
    05:00 +28°C° 0 mm 2 mps 750 mmHg 78%
    06:00 +29°C° 0 mm 2 mps 750 mmHg 77%
    07:00 +29°C° 0 mm 2 mps 751 mmHg 76%
    08:00 +30°C° 0 mm 2 mps 751 mmHg 71%
    09:00 +32°C° 0 mm 2 mps 751 mmHg 65%
    10:00 +34°C° 0 mm 2 mps 751 mmHg 60%
    11:00 +35°C° 0 mm 3 mps 750 mmHg 61%
    12:00 +35°C° 0 mm 3 mps 750 mmHg 62%
    13:00 +35°C° 0 mm 4 mps 750 mmHg 63%
    14:00 +34°C° 0.4 mm 5 mps 749 mmHg 68%
    15:00 +34°C° 0.4 mm 5 mps 749 mmHg 73%
    16:00 +33°C° 0.4 mm 6 mps 748 mmHg 78%
    17:00 +32°C° 0.3 mm 5 mps 749 mmHg 80%
    18:00 +30°C° 0.3 mm 5 mps 749 mmHg 83%
    19:00 +30°C° 0.3 mm 5 mps 750 mmHg 85%
    20:00 +29°C° 0 mm 5 mps 750 mmHg 85%
    21:00 +29°C° 0 mm 4 mps 751 mmHg 86%
    22:00 +29°C° 0 mm 4 mps 751 mmHg 86%
    23:00 +29°C° 0 mm 4 mps 751 mmHg 86%

    Day after tomorrow, 26 August, Monday

    Time Temperature Precipitation Wind Pressure Humidity
    00:00 +29°C° 0 mm 3 mps 751 mmHg 85%
    01:00 +28°C° 0 mm 3 mps 750 mmHg 84%
    02:00 +28°C° 0 mm 3 mps 750 mmHg 83%
    03:00 +28°C° 0 mm 2 mps 750 mmHg 82%
    04:00 +28°C° 0 mm 2 mps 750 mmHg 81%
    05:00 +28°C° 0.1 mm 2 mps 750 mmHg 79%
    06:00 +29°C° 0.1 mm 2 mps 750 mmHg 78%
    07:00 +29°C° 0.1 mm 2 mps 751 mmHg 76%
    08:00 +31°C° 0 mm 1 mps 751 mmHg 71%
    09:00 +32°C° 0 mm 1 mps 751 mmHg 66%
    10:00 +33°C° 0 mm 1 mps 751 mmHg 61%
    11:00 +33°C° 0.1 mm 1 mps 750 mmHg 63%
    12:00 +34°C° 0.1 mm 2 mps 750 mmHg 66%
    13:00 +34°C° 0.1 mm 3 mps 749 mmHg 69%
    14:00 +33°C° 0.4 mm 3 mps 749 mmHg 71%
    15:00 +33°C° 0.4 mm 3 mps 749 mmHg 73%
    16:00 +33°C° 0.4 mm 3 mps 748 mmHg 75%
    17:00 +31°C° 0.9 mm 3 mps 749 mmHg 78%
    18:00 +30°C° 0.9 mm 2 mps 749 mmHg 82%
    19:00 +29°C° 0.9 mm 2 mps 750 mmHg 85%
    20:00 +29°C° 0 mm 2 mps 750 mmHg 84%
    21:00 +29°C° 0 mm 2 mps 751 mmHg 84%
    22:00 +29°C° 0 mm 2 mps 751 mmHg 83%
    23:00 +29°C° 0 mm 2 mps 751 mmHg 82%

    27 August, Tuesday

    Time Temperature Precipitation Wind Pressure Humidity
    00:00 +29°C° 0 mm 2 mps 750 mmHg 82%
    01:00 +29°C° 0 mm 2 mps 750 mmHg 82%
    02:00 +28°C° 0 mm 2 mps 750 mmHg 81%
    03:00 +28°C° 0 mm 2 mps 750 mmHg 80%
    04:00 +28°C° 0 mm 2 mps 750 mmHg 79%
    05:00 +29°C° 0 mm 2 mps 750 mmHg 77%
    06:00 +29°C° 0 mm 2 mps 750 mmHg 75%
    07:00 +30°C° 0 mm 1 mps 750 mmHg 73%
    08:00 +31°C° 0 mm 1 mps 750 mmHg 68%
    09:00 +32°C° 0 mm 1 mps 750 mmHg 63%
    10:00 +34°C° 0 mm 1 mps 751 mmHg 58%
    11:00 +35°C° 0.1 mm 2 mps 750 mmHg 59%
    12:00 +35°C° 0.1 mm 2 mps 749 mmHg 60%
    13:00 +35°C° 0.1 mm 3 mps 749 mmHg 62%
    14:00 +34°C° 0.8 mm 3 mps 748 mmHg 66%
    15:00 +34°C° 0.8 mm 3 mps 748 mmHg 70%
    16:00 +33°C° 0.8 mm 3 mps 748 mmHg 74%
    17:00 +31°C° 0.6 mm 2 mps 748 mmHg 78%
    18:00 +30°C° 0.6 mm 2 mps 749 mmHg 81%
    19:00 +29°C° 0.6 mm 2 mps 749 mmHg 85%
    20:00 +29°C° 0.4 mm 2 mps 750 mmHg 84%
    21:00 +29°C° 0.4 mm 2 mps 750 mmHg 84%
    22:00 +28°C° 0.4 mm 2 mps 751 mmHg 83%
    23:00 +28°C° 0.5 mm 2 mps 751 mmHg 84%

    28 August, Wednesday

    Time Temperature Precipitation Wind Pressure Humidity
    00:00 +28°C° 0.5 mm 3 mps 750 mmHg 84%
    01:00 +28°C° 0.5 mm 3 mps 750 mmHg 85%
    02:00 +28°C° 0.5 mm 2 mps 750 mmHg 84%
    03:00 +28°C° 0.5 mm 2 mps 750 mmHg 84%
    04:00 +28°C° 0.5 mm 2 mps 749 mmHg 84%
    05:00 +28°C° 0.2 mm 2 mps 750 mmHg 83%
    06:00 +28°C° 0.2 mm 2 mps 750 mmHg 82%
    07:00 +29°C° 0.2 mm 2 mps 750 mmHg 82%
    08:00 +30°C° 0 mm 1 mps 750 mmHg 76%
    09:00 +31°C° 0 mm 1 mps 751 mmHg 70%
    10:00 +33°C° 0 mm 1 mps 751 mmHg 63%
    11:00 +34°C° 0.2 mm 2 mps 750 mmHg 66%
    12:00 +32°C° 0.2 mm 2 mps 750 mmHg 68%
    13:00 +33°C° 0.2 mm 3 mps 749 mmHg 70%
    14:00 +33°C° 0.8 mm 3 mps 749 mmHg 72%
    15:00 +33°C° 0.8 mm 3 mps 748 mmHg 73%
    16:00 +31°C° 0.8 mm 3 mps 748 mmHg 75%
    17:00 +31°C° 1 mm 2 mps 748 mmHg 78%
    18:00 +30°C° 1 mm 2 mps 749 mmHg 81%
    19:00 +29°C° 1 mm 2 mps 749 mmHg 84%
    20:00 +29°C° 1.1 mm 2 mps 750 mmHg 85%
    21:00 +28°C° 1.1 mm 2 mps 750 mmHg 87%
    22:00 +28°C° 1.1 mm 2 mps 751 mmHg 88%
    23:00 +28°C° 0.3 mm 3 mps 750 mmHg 88%

    29 August, Thursday

    Time Temperature Precipitation Wind Pressure Humidity
    00:00 +28°C° 0.3 mm 3 mps 749 mmHg 88%
    01:00 +28°C° 0.3 mm 3 mps 749 mmHg 87%
    02:00 +27°C° 0.2 mm 3 mps 749 mmHg 88%
    03:00 +27°C° 0.2 mm 2 mps 748 mmHg 88%
    04:00 +27°C° 0.2 mm 2 mps 748 mmHg 88%
    05:00 +27°C° 0.1 mm 2 mps 748 mmHg 88%
    06:00 +27°C° 0.1 mm 2 mps 748 mmHg 87%
    07:00 +27°C° 0.1 mm 2 mps 748 mmHg 87%
    08:00 +27°C° 0.1 mm 2 mps 749 mmHg 86%
    09:00 +28°C° 0.1 mm 2 mps 749 mmHg 86%
    10:00 +28°C° 0.1 mm 2 mps 749 mmHg 85%
    11:00 +28°C° 0.1 mm 2 mps 748 mmHg 84%
    12:00 +28°C° 0.1 mm 2 mps 748 mmHg 82%
    13:00 +29°C° 0.1 mm 2 mps 747 mmHg 81%
    14:00 +29°C° 0 mm 2 mps 747 mmHg 81%
    15:00 +29°C° 0 mm 3 mps 747 mmHg 80%
    16:00 +30°C° 0 mm 3 mps 746 mmHg 79%
    17:00 +29°C° 0 mm 4 mps 747 mmHg 80%
    18:00 +29°C° 0 mm 4 mps 747 mmHg 82%
    19:00 +28°C° 0 mm 5 mps 748 mmHg 83%
    20:00 +28°C° 0 mm 5 mps 748 mmHg 83%
    21:00 +28°C° 0 mm 5 mps 748 mmHg 84%
    22:00 +28°C° 0 mm 6 mps 749 mmHg 85%
    23:00 +27°C° 0 mm 6 mps 748 mmHg 85%
    Show more